Nellis AFB, NV

4:57 AM PST on December 15, 2019 (GMT -0800)
Nellis Air Force Base

Weather History for KLSV - October, 2019

Change the Weather History Date:

Friday, October 11, 2019

  Actual Average Record
Temperature  
Mean Temperature 61 °F -  
Max Temperature 72 °F 84 °F 96 °F (1996)
Min Temperature 50 °F 55 °F 48 °F (2008)
Degree Days  
Heating Degree Days 4    
Growing Degree Days 11 (Base 50)    
Moisture  
Dew Point 0 °F    
Average Humidity 10    
Maximum Humidity 16    
Minimum Humidity 5    
Precipitation  
Precipitation 0.00 in - - ()
Sea Level Pressure  
Sea Level Pressure 30.14 in    
Wind  
Wind Speed 12 mph (North)    
Max Wind Speed 21 mph    
Max Gust Speed 28 mph    
Visibility 10 miles    
Events      
Averages and records for this station are not official NWS values.
T = Trace of Precipitation, MM = Missing Value Source: NWS Daily Summary

Daily Weather History Graph

Daily Weather History Graph

Search for Another Location

Airport or City:

Astronomy

Oct. 11, 2019 Rise Set
Actual Time 6:43 AM PDT 6:09 PM PDT
Civil Twilight 6:17 AM PDT 6:35 PM PDT
Nautical Twilight 5:47 AM PDT 7:05 PM PDT
Astronomical Twilight 5:18 AM PDT 7:34 PM PDT
Moon 5:35 PM PDT (10/11) 4:34 AM PDT (10/11)
Length of Visible Light 12h 17m
Length of Day
11h 26m
Waxing Gibbous, 96% of the Moon is Illuminated
Oct 11
Waxing Gibbous
Oct 13
Full
Oct 21
Last Quarter
Oct 27
New
Nov 4
First Quarter

Hourly Weather History & Observations

Time (PDT) Temp. Dew Point Humidity Pressure Visibility Wind Dir Wind Speed Gust Speed Precip Events Conditions
12:58 AM 56.1 °F 9.1 °F 15% 30.20 in 10.0 mi Variable 6.9 mph - N/A   Clear
1:55 AM 52.7 °F 7.7 °F 16% 30.21 in 10.0 mi North 11.5 mph 17.3 mph N/A   Partly Cloudy
2:55 AM 54.1 °F 9.0 °F 16% 30.21 in 10.0 mi North 13.8 mph 27.6 mph N/A   Mostly Cloudy
3:55 AM 54.5 °F 6.3 °F 14% 30.20 in 10.0 mi North 16.1 mph 25.3 mph N/A   Mostly Cloudy
4:52 AM 54.1 °F 2.7 °F 12% 30.20 in 10.0 mi North 19.6 mph - N/A   Mostly Cloudy
4:55 AM 54.1 °F 2.7 °F 12% 30.20 in 10.0 mi North 19.6 mph - N/A   Mostly Cloudy
5:58 AM 53.2 °F 1.9 °F 12% 30.22 in 10.0 mi NNE 12.7 mph - N/A   Partly Cloudy
6:56 AM 50.4 °F 2.8 °F 14% 30.24 in 10.0 mi NNE 11.5 mph 19.6 mph N/A   Partly Cloudy
7:58 AM 52.9 °F 3.4 °F 13% 30.25 in 10.0 mi North 15.0 mph - N/A   Clear
8:58 AM 56.5 °F 2.5 °F 11% 30.25 in 10.0 mi North 18.4 mph - N/A   Clear
9:58 AM 59.9 °F 3.2 °F 10% 30.24 in 10.0 mi North 18.4 mph - N/A   Clear
10:34 AM 62.6 °F -0.4 °F 8% 30.22 in 10.0 mi NNW 16.1 mph 25.3 mph N/A   Clear
10:58 AM 63.3 °F -1.8 °F 7% 30.21 in 10.0 mi North 16.1 mph 21.9 mph N/A   Clear
11:58 AM 66.0 °F 0.1 °F 7% 30.17 in 10.0 mi NNE 16.1 mph - N/A   Clear
12:58 PM 68.5 °F -1.3 °F 6% 30.13 in 10.0 mi NNE 18.4 mph 26.5 mph N/A   Clear
1:58 PM 70.7 °F -3.6 °F 5% 30.08 in 10.0 mi North 20.7 mph 27.6 mph N/A   Clear
2:58 PM 71.2 °F -3.3 °F 5% 30.05 in 10.0 mi NNE 16.1 mph - N/A   Clear
4:58 PM 72.1 °F -2.6 °F 5% 30.00 in 10.0 mi North 10.4 mph - N/A   Clear
6:58 PM 65.1 °F -3.8 °F 6% 29.99 in 10.0 mi WNW 9.2 mph - N/A   Clear
7:58 PM 62.1 °F -2.9 °F 7% 29.99 in 10.0 mi West 4.6 mph - N/A   Clear
8:58 PM 58.8 °F -8.5 °F 6% 29.99 in 10.0 mi Calm Calm - N/A   Clear
9:58 PM 51.6 °F -10.7 °F 7% 30.00 in 8.0 mi North 4.6 mph - N/A   Unknown
10:58 PM 50.5 °F -8.7 °F 8% 30.00 in 10.0 mi Calm Calm - N/A   Clear
11:58 PM 52.0 °F -5.3 °F 9% 29.99 in 10.0 mi North 1.2 mph - N/A   Clear